Location: McDonald Observatory
(30.6717°N, 104.0221°W)
Time: 20:31:28
(UTC-05:00)

Daily predictions for brighter satellites

Satellite Brightness Start Highest point End
(mag) Time Altitude Azimuth Time Altitude Azimuth Time Altitude Azimuth
COSMOS 2441 4.4 19:59:53 10° SSE 20:04:42 67° ENE 20:09:30 10° N
Meteor 2-5 Rocket 4.2 19:59:42 10° NNW 20:05:13 67° W 20:10:40 10° S
CZ-4 R/B 4.3 20:02:10 10° SSW 20:05:14 22° W 20:08:20 10° NW
DMSP B5D1-3 4.5 20:00:52 10° NNE 20:05:58 76° ESE 20:11:04 10° S
SJ-6B 3.8 20:02:43 10° SE 20:06:08 28° ENE 20:09:36 10° NNE
ASTRO E2 2.7 20:04:05 10° W 20:08:08 84° N 20:12:11 10° E
SKYMED 2 4.1 20:08:05 10° N 20:12:22 65° WNW 20:16:40 10° SSW
Cosmos 1408 Rocket 4.2 20:09:18 10° NNE 20:13:12 32° E 20:17:03 10° SE
CENTAUR R/B 3.1 20:09:05 10° S 20:14:10 32° ESE 20:19:41 10° NE
ATLAS 5 CENTAUR R/B 2.8 20:11:19 10° SW 20:15:52 50° WNW 20:20:44 10° NNE
Cosmos 724 4.4 20:10:14 10° SSW 20:16:05 89° ESE 20:22:09 10° NNE
Cosmos 1484 Rocket 2.7 20:12:46 10° SSE 20:16:34 84° ENE 20:20:28 10° N
Cosmos 1758 3.5 20:16:09 10° SSE 20:20:04 48° E 20:24:01 10° NNE
ALOS 3.9 20:20:32 11° E 20:22:39 14° ENE 20:25:09 10° NE
ISS -2.8 20:19:56 10° SW 20:23:08 60° NW 20:26:21 10° NE
Helios 1A 4.2 20:21:36 10° ESE 20:24:52 22° ENE 20:28:08 10° NNE
Meteosat 1 Rocket2 4.4 20:19:06 10° WSW 20:27:06 52° SSE 20:31:33 15° E
Cosmos 1544 3.6 20:24:57 10° SSE 20:28:23 37° E 20:31:51 10° NNE
Spot 2 Rocket 4.1 20:24:05 10° SE 20:28:33 33° ENE 20:33:02 10° N
SL-19 R/B 4.3 20:23:56 10° SSE 20:29:30 80° ENE 20:35:22 10° NNW
Cosmos 1048 Rocket 4.2 20:26:16 10° S 20:31:22 48° ESE 20:36:25 10° NNE
Cosmos 1269 Rocket 4.0 20:29:17 10° S 20:34:28 63° ESE 20:39:41 10° NNE
SAR-Lupe-4 3.5 20:31:06 10° SSE 20:34:39 85° ENE 20:38:13 10° N
METEOR-M 4.3 20:32:44 10° SSE 20:37:52 50° ENE 20:43:01 10° N
HJ-1C 3.9 20:37:31 10° SE 20:40:38 36° ENE 20:43:45 10° N
Resurs 01 Rocket 2.0 20:36:44 10° SE 20:40:54 41° ENE 20:45:05 10° N
SL-16 R/B 4.5 20:37:16 10° WSW 20:41:56 26° WNW 20:46:39 10° N
Cosmos 1743 Rocket 4.2 20:39:16 10° NNE 20:43:15 33° E 20:46:37 13° SE
Cosmos 1174 4.4 20:38:49 10° S 20:43:58 50° ESE 20:48:05 10° NE
Timation 1 Rocket 4.4 20:39:10 10° NNW 20:45:08 84° WSW 20:51:06 10° SSE
Cosmos 1378 4.4 20:41:50 10° NNW 20:45:24 45° W 20:48:58 10° SSW
Meteor 1-21 Rocket 4.2 20:41:31 10° N 20:46:56 54° E 20:52:19 10° SSE
Cosmos 158 Rocket 4.2 20:45:10 10° S 20:49:42 39° ESE 20:54:13 10° NNE
FREGAT/IRIS 2.8 20:50:01 10° S 20:53:06 75° W 20:56:11 10° NNW
FENGYUN 3A 4.3 20:51:25 21° ESE 20:54:13 34° ENE 20:59:00 10° N
Atlas Centaur 2 3.8 20:46:08 10° W 20:54:13 47° SSW 21:00:50 15° SE
H-2A R/B 4.4 21:03:23 20° NE 21:03:23 20° NE 21:05:01 10° NNE
Helios 1B rocket 2.7 20:58:52 10° N 21:02:57 68° WNW 21:07:02 10° SSW
USA 215 3.6 20:56:51 10° NE 21:03:19 68° NW 21:09:46 10° SW
Milstar 3 4.4 20:56:14 10° W 21:06:17 77° S 21:18:57 26° ESE
Cosmos 1346 3.0 21:05:32 10° N 21:08:14 71° N 21:08:14 71° N
GPS 2-04 Rocket1 3.2 21:07:17 10° W 21:10:36 41° N 21:11:14 36° NNE
Nadezhda 4 Rocket 3.9 21:05:30 10° N 21:11:45 76° E 21:17:55 10° S
Cosmos 1953 4.3 21:09:01 10° SW 21:12:32 30° W 21:16:04 10° NNW
SeaSat 1 3.0 21:14:24 36° SE 21:14:24 36° SE 21:18:05 10° S
Meteor 1-29 4.1 21:14:44 10° N 21:18:05 44° WNW 21:21:24 10° SSW
Gbstr 26 Del rocket 4.2 21:14:27 10° WSW 21:18:33 44° NW 21:22:26 15° NNE
Cosmos 1092 Rocket 3.9 21:14:41 10° N 21:20:49 63° E 21:24:55 21° SSE
Cosmos 2142 Rocket 4.5 21:16:21 10° S 21:22:35 63° E 21:28:53 10° NNE
Cosmos 1943 3.2 21:17:23 10° SSW 21:23:00 81° WNW 21:28:40 10° NNE
Cosmos 1943 Rocket 4.2 21:20:18 10° NNE 21:21:09 12° NNE 21:21:09 12° NNE
Cosmos 1733 3.3 21:22:57 10° S 21:26:50 75° W 21:30:41 10° N
Cosmos 2369 Rocket 2.7 21:22:26 10° N 21:27:10 39° NE 21:27:10 39° NE
Cosmos 1470 3.4 21:25:20 10° SSW 21:29:08 53° W 21:32:56 10° N
Cosmos 1634 Rocket 3.8 21:24:10 10° S 21:30:24 79° E 21:36:38 10° N
OAO 3 Rocket 3.2 21:30:25 10° WNW 21:35:09 66° NNE 21:35:09 66° NNE
SEDSat Delta rocket 4.0 21:29:45 10° W 21:36:28 82° SSW 21:37:58 57° ESE
Cosmos 2251 Rocket 4.1 21:32:35 10° S 21:44:51 - NNE 21:36:02 42° S
Delta 168 4.1 21:34:04 10° WSW 21:38:42 49° S 21:39:10 48° SSE
Cosmos 1674 3.7 21:38:18 10° NNW 21:41:20 45° NW 21:41:20 45° NW
ASTEX 1 4.1 21:41:53 10° N 21:46:37 51° W 21:51:20 10° SSW
ASTRO E2 4.2 21:44:47 10° W 21:47:22 33° WSW 21:47:22 33° WSW
Cosmos 1500 Rocket 4.4 21:47:31 10° NNW 21:51:49 49° W 21:52:00 49° WSW
Cosmos 2195 Rocket 4.4 21:48:43 10° N 21:54:42 75° NE 21:54:42 75° NE
ALOS 3.3 21:59:05 40° WSW 21:59:41 42° W 22:04:07 10° NNW
Cosmos 839 Rocket 4.3 21:54:12 10° NNW 22:00:25 58° NNE 22:00:25 58° NNE
CENTAUR R/B 4.0 21:59:16 10° WSW 22:04:37 33° NW 22:10:31 10° NNE
